Starlink 4112

operational
NORAD ID: 52861 Int'l Des: 2022-062 Owner: SPXS Country: US Constellation: starlink
LEOCIRCULAR

About Starlink 4112

Description loading...

Live Position

Loading 3D Globe...

Upcoming Passes

Altitude History

Altitude vs Time

uPlot chart will show altitude changes over time

Two-Line Element Set

1 52861U 22062AH 26102.37618199 -.00000605 00000-0 -19908-4 0 9993
2 52861 53.2165 232.9065 0001416 90.5645 269.5509 15.08838133211015
Epoch: Apr 12, 2026 • Age: 11 hours

Current Status

Altitude 553.4 km
Velocity 7.58 km/s
Sub-Earth Point -39.28°S, 46.48°W
Launch Date Jun 17, 2022
Age 3.8 years
Type internet

Technical Details

Classification Payload
Mass 297.00 kg
Dry Mass 275.00 kg
Total Mass 297.00 kg
Length 0.20 m
Diameter 2.80 m
Span 9.00 m
Shape Box + pan
Manufacturer SPXS
Bus Type Starlink
Phase Status In Orbit
Owner/State SPXS/US

Large Constellations

Loading constellations...